Volver al catálogo

STARLINK-4297

ActivoComunicacionesVLEO
NORAD 53543·PAYLOAD·🇺🇸 United States

Lanzado Aug 19, 2022 desde Cape Canaveral Space Force Station

Loading…

Próximos Pases (próximas 24 horas)

TLE

ActualizadoSource: CelesTrak SupGP

Época: Sep 15, 2026, 02:10 UTC

1 53543C 22101S   26258.09076389  .00005809  00000+0  17162-3 0  2580
2 53543  53.1573 278.7076 0001314  93.8509 197.1981 15.34390497    18

Sigue STARLINK-4297 en tiempo real con AllMySat

Download on the App Store